Notices

What's New in latest Release from April 7th, 2021:

- Updated Glossary, including Speed of Maximum Gust, and Total Hourly Precipitation

- Updated national and regional climate services offices contacts and prices information

- Addition of station inventory lists for 1981-2010, 1971-2000, and 1961-1990 Normals.

If you haven't already, please take our survey and provide feedback about our website: https://eccc.sondage-survey.ca/f/LanguageSelection.aspx?s=442ca660-fcf1-47c0-95a9-59707d6fd709

Hourly Data Report for April 24, 2017

MIRAMICHI RCS
NEW BRUNSWICK

47°00'34.000" N
65°27'54.000" W
33.00 m
8100989
71744
ACQ

Download Data

Hourly Data (April 2017)
Hourly Data Report for April 24, 2017
TIME
LST
Temp Definition
°C
Dew Point Definition
°C
Rel Hum Definition
%
Precip. Amount Definition
mm

Wind Dir Definition
10's deg

Wind Spd Definition
km/h
Visibility Definition
km
Stn Press Definition
kPa
Hmdx Definition


Wind Chill Definition


Weather Definition


00:00 4.9 1.4 78 0.0 23 11   100.86     LegendNANA
01:00 4.9 1.9 81 0.0 23 16   100.91     LegendNANA
02:00 4.3 1.9 84 0.0 25 13   100.92     LegendNANA
03:00 3.9 2.1 88 0.0 25 13   100.93     LegendNANA
04:00 2.6 1.2 91 0.0 25 7   101.03     LegendNANA
05:00 3.4 1.1 85 0.0 31 8   101.14     LegendNANA
06:00 1.8 -0.7 84 0.0 28 10   101.33     LegendNANA
07:00 3.2 -1.6 71 0.0 31 10   101.41     LegendNANA
08:00 3.5 -2.6 64 0.0 31 11   101.50     LegendNANA
09:00 4.4 -3.2 58 0.0 27 15   101.61     LegendNANA
10:00 5.8 -3.9 50 0.0 30 13   101.66     LegendNANA
11:00 6.8 -5.0 43 0.0 30 14   101.64     LegendNANA
12:00 8.2 -6.6 34 0.0 28 20   101.64     LegendNANA
13:00 8.1 -7.0 33 0.0 27 21   101.65     LegendNANA
14:00 7.4 -8.7 31 0.0 28 19   101.67     LegendNANA
15:00 7.9 -10.7 26 0.0 27 18   101.72     LegendNANA
16:00 8.4 -11.3 23 0.0 27 21   101.73     LegendNANA
17:00 9.0 -11.4 22 0.0 29 17   101.75     LegendNANA
18:00 8.1 -14.8 18 0.0 29 17   101.87     LegendNANA
19:00 6.6 -14.3 21 0.0 30 12   101.95     LegendNANA
20:00 4.4 -13.8 25 0.0 34 4   102.03     LegendNANA
21:00 0.4 -6.7 59 0.0 29 4   102.15     LegendNANA
22:00 1.0 -12.2 37 0.0 0 1   102.29     LegendNANA
23:00 0.1 -11.0 43 0.0 4 6   102.36     LegendNANA

Notes on Data Quality.

Legend

  • E = Estimated
  • M = Missing
  • NA = Not Available*
  • [empty] = Indicates an unobserved value
Date modified: